Flag for Greenland Weather past 2 weeks in Nuuk, Greenland

Now
46 °F

Drizzle. Fog.


Feels Like: 41 °F
Forecast: 44 / 50 °F
Wind: 13 mph from South

Location: Godthaab / Nuuk

Current Time: Aug 30, 2015 at 12:36:47 PM

Latest Report: Aug 30, 2015 at 11:50 AM


Visibility: 1 mi

Pressure: 29.65 "Hg

Humidity: 100%

Dew point: 46 °F

Location of NuukLocation

Historic Weather in Nuuk — Graph

°F

Nuuk temperature yesterday

Maximum temperature yesterday: 50 °F (at 4:50 PM)
Minimum temperature yesterday: 43 °F (at 10:50 PM)
Average temperature yesterday: 46 °F

Past Weeks' High & Low Weather Summary

 TemperatureHumidityPressure
High59 °F (Aug 15, 4:50 PM)100% (Aug 17, 8:50 PM)30.15 "Hg (Aug 17, 8:50 PM)
Low34 °F (Aug 24, 4:50 AM)32% (Aug 22, 11:50 AM)29.62 "Hg (Aug 30, 4:50 AM)
Average45 °F79%29.88 "Hg
* Reported Aug 15 10:50 AM — Aug 30 10:50 AM, Nuuk, Weather by CustomWeather, © 2015

Note: Actual official high and low records may vary slightly from our data, if they occured in-between our weather recording intervals... More about our weather records

Advertising

Nuuk weather history for previous 24 hours

 ConditionsComfort  
Time TempWeatherWind HumidityBarometerVisibility
10:50 AM
Sun, Aug 30
48 °FDrizzle. Fog.15 mph94%29.65 "Hg2 mi
9:50 AM48 °FDrizzle. Overcast.5 mph94%29.65 "Hg2 mi
8:50 AM46 °FDrizzle. Low clouds.1 mph93%29.62 "HgN/A
7:50 AM45 °FLight rain. Overcast.7 mph93%29.62 "Hg0 mi
6:50 AM45 °FRain. Low clouds.5 mph100%29.62 "HgN/A
5:50 AM43 °FDrizzle. Fog.2 mph100%29.62 "Hg0 mi
4:50 AM43 °FLight rain. Low clouds.2 mph100%29.62 "Hg4 mi
3:50 AM43 °FLight rain. Low clouds.3 mph100%29.65 "Hg4 mi
2:50 AM43 °FRain. Low clouds.5 mph100%29.65 "Hg4 mi
1:50 AM43 °FLight rain. Fog.5 mph100%29.68 "Hg0 mi
12:50 AM43 °FLight rain. Low clouds.6 mph100%29.68 "Hg3 mi
11:50 PM
Sat, Aug 29
43 °FLight rain. Mostly cloudy.3 mph100%29.71 "Hg5 mi
10:50 PM43 °FPartly cloudy.5 mph100%29.71 "Hg4 mi
9:50 PM45 °FLight rain. Fog.6 mph100%29.71 "Hg1 mi
8:50 PM45 °FDrizzle. Fog.10 mph100%29.71 "Hg1 mi
7:50 PM46 °FDrizzle. Mostly cloudy.13 mph93%29.71 "HgN/A
6:50 PM50 °FLight rain. Fog.26 mph82%29.71 "Hg5 mi
5:50 PM48 °FLight rain. Fog.28 mph87%29.71 "Hg2 mi
4:50 PM50 °FLight rain. Fog.25 mph88%29.74 "Hg3 mi
3:50 PM48 °FLight rain. Fog.23 mph94%29.74 "Hg3 mi
2:50 PM46 °FLight rain. Fog.6 mph100%29.77 "Hg2 mi
1:50 PM48 °FLight rain. Broken clouds.1 mph94%29.77 "Hg4 mi
12:50 PM48 °FLight rain. More clouds than sun.3 mph87%29.80 "HgN/A
Weather by CustomWeather, © 2015

See weather overviewHow to use our weather pages